Time,TemperatureF,DewpointF,PressureIn,WindDirection,WindDirectionDegrees,WindSpeedMPH,WindSpeedGustMPH,Humidity,HourlyPrecipIn,Conditions,Clouds,dailyrainin,SoftwareType,DateUTC
2013-03-23 00:03:00,25.0,20.0,29.39,SE,124,0.0,-999.0,80,-99.99,,,-99.99,,2013-03-23 04:03:00,
2013-03-23 00:13:00,25.0,20.0,29.39,SE,124,0.0,-999.0,80,-99.99,,,-99.99,,2013-03-23 04:13:00,
2013-03-23 00:23:00,25.0,20.0,29.35,SE,131,0.0,-999.0,81,-99.99,,,-99.99,,2013-03-23 04:23:00,
2013-03-23 00:32:00,24.0,19.0,29.39,SE,131,0.0,-999.0,81,-99.99,,,-99.99,,2013-03-23 04:32:00,
2013-03-23 00:43:00,24.0,19.0,29.39,SE,131,0.0,-999.0,81,-99.99,,,-99.99,,2013-03-23 04:43:00,
2013-03-23 00:53:00,25.0,21.0,29.34,East,92,0.0,-999.0,84,-99.99,,,-99.99,,2013-03-23 04:53:00,
2013-03-23 01:02:00,24.0,20.0,29.39,East,92,0.0,-999.0,84,-99.99,,,-99.99,,2013-03-23 05:02:00,
2013-03-23 01:12:00,24.0,20.0,29.39,East,92,0.0,-999.0,84,-99.99,,,-99.99,,2013-03-23 05:12:00,
2013-03-23 01:22:00,24.0,20.0,29.34,East,92,0.0,-999.0,85,-99.99,,,-99.99,,2013-03-23 05:22:00,
2013-03-23 01:32:00,24.0,20.0,29.38,East,95,0.0,-999.0,85,-99.99,,,-99.99,,2013-03-23 05:32:00,
2013-03-23 01:42:00,24.0,20.0,29.38,East,95,0.0,-999.0,85,-99.99,,,-99.99,,2013-03-23 05:42:00,
2013-03-23 01:53:00,24.0,21.0,29.35,South,176,0.0,-999.0,87,-99.99,,,-99.99,,2013-03-23 05:53:00,
2013-03-23 02:02:00,24.0,21.0,29.39,East,101,0.0,-999.0,88,-99.99,,,-99.99,,2013-03-23 06:02:00,
2013-03-23 02:12:00,24.0,21.0,29.39,East,101,0.0,-999.0,88,-99.99,,,-99.99,,2013-03-23 06:12:00,
2013-03-23 02:22:00,24.0,21.0,29.34,ESE,104,1.0,-999.0,89,-99.99,,,-99.99,,2013-03-23 06:22:00,
2013-03-23 02:32:00,23.0,21.0,29.38,ESE,104,0.0,-999.0,90,-99.99,,,-99.99,,2013-03-23 06:32:00,
2013-03-23 02:42:00,23.0,21.0,29.38,ESE,104,0.0,-999.0,90,-99.99,,,-99.99,,2013-03-23 06:42:00,
2013-03-23 02:52:00,23.0,21.0,29.37,SE,140,0.0,-999.0,90,-99.99,,,-99.99,,2013-03-23 06:52:00,
2013-03-23 03:02:00,23.0,21.0,29.36,SE,140,0.0,-999.0,91,-99.99,,,-99.99,,2013-03-23 07:02:00,
2013-03-23 03:12:00,23.0,21.0,29.36,SE,140,0.0,-999.0,91,-99.99,,,-99.99,,2013-03-23 07:12:00,
2013-03-23 03:22:00,24.0,22.0,29.32,SE,140,0.0,-999.0,91,-99.99,,,-99.99,,2013-03-23 07:22:00,
2013-03-23 03:32:00,23.0,21.0,29.36,SE,140,0.0,-999.0,91,-99.99,,,-99.99,,2013-03-23 07:32:00,
2013-03-23 03:42:00,23.0,21.0,29.36,SE,140,0.0,-999.0,91,-99.99,,,-99.99,,2013-03-23 07:42:00,
2013-03-23 03:52:00,24.0,22.0,29.32,SE,140,0.0,-999.0,92,-99.99,,,-99.99,,2013-03-23 07:52:00,
2013-03-23 04:02:00,23.0,21.0,29.35,SE,140,0.0,-999.0,92,-99.99,,,-99.99,,2013-03-23 08:02:00,
2013-03-23 04:13:00,23.0,21.0,29.35,SE,140,0.0,-999.0,92,-99.99,,,-99.99,,2013-03-23 08:13:00,
2013-03-23 04:22:00,23.0,21.0,29.30,SE,140,0.0,-999.0,92,-99.99,,,-99.99,,2013-03-23 08:22:00,
2013-03-23 04:32:00,22.0,20.0,29.33,SE,140,0.0,-999.0,93,-99.99,,,-99.99,,2013-03-23 08:32:00,
2013-03-23 04:42:00,22.0,20.0,29.33,SE,140,0.0,-999.0,93,-99.99,,,-99.99,,2013-03-23 08:42:00,
2013-03-23 04:53:00,23.0,21.0,29.29,SE,140,0.0,-999.0,93,-99.99,,,-99.99,,2013-03-23 08:53:00,
2013-03-23 05:02:00,22.0,20.0,29.32,SE,140,0.0,-999.0,93,-99.99,,,-99.99,,2013-03-23 09:02:00,
2013-03-23 05:12:00,22.0,20.0,29.32,SE,140,0.0,-999.0,93,-99.99,,,-99.99,,2013-03-23 09:12:00,
2013-03-23 05:22:00,22.0,20.0,29.32,SE,143,0.0,-999.0,93,-99.99,,,-99.99,,2013-03-23 09:22:00,
2013-03-23 05:33:00,22.0,20.0,29.32,SE,143,0.0,-999.0,93,-99.99,,,-99.99,,2013-03-23 09:33:00,
2013-03-23 05:43:00,22.0,20.0,29.32,SE,143,0.0,-999.0,93,-99.99,,,-99.99,,2013-03-23 09:43:00,
2013-03-23 05:53:00,24.0,22.0,29.29,SSE,164,0.0,-999.0,93,-99.99,,,-99.99,,2013-03-23 09:53:00,
2013-03-23 06:03:00,23.0,21.0,29.33,South,182,0.0,-999.0,93,-99.99,,,-99.99,,2013-03-23 10:03:00,
2013-03-23 06:13:00,23.0,21.0,29.33,South,182,0.0,-999.0,93,-99.99,,,-99.99,,2013-03-23 10:13:00,
2013-03-23 06:23:00,24.0,22.0,29.29,SE,143,0.0,-999.0,93,-99.99,,,-99.99,,2013-03-23 10:23:00,
2013-03-23 06:34:00,24.0,22.0,29.33,SE,143,0.0,-999.0,93,-99.99,,,-99.99,,2013-03-23 10:34:00,
2013-03-23 06:43:00,24.0,22.0,29.33,SE,143,0.0,-999.0,93,-99.99,,,-99.99,,2013-03-23 10:43:00,
2013-03-23 06:53:00,25.0,23.0,29.29,South,180,0.0,-999.0,92,-99.99,,,-99.99,,2013-03-23 10:53:00,
2013-03-23 07:03:00,25.0,22.0,29.32,SE,142,1.0,-999.0,90,-99.99,,,-99.99,,2013-03-23 11:03:00,
2013-03-23 07:12:00,25.0,22.0,29.32,SE,142,1.0,-999.0,90,-99.99,,,-99.99,,2013-03-23 11:12:00,
2013-03-23 07:22:00,25.0,22.0,29.29,SE,145,1.0,-999.0,90,-99.99,,,-99.99,,2013-03-23 11:22:00,
2013-03-23 07:32:00,25.0,22.0,29.33,SE,130,0.0,-999.0,90,-99.99,,,-99.99,,2013-03-23 11:32:00,
2013-03-23 07:42:00,25.0,22.0,29.33,SE,130,0.0,-999.0,90,-99.99,,,-99.99,,2013-03-23 11:42:00,
2013-03-23 07:52:00,25.0,22.0,29.32,ESE,122,0.0,-999.0,90,-99.99,,,-99.99,,2013-03-23 11:52:00,
2013-03-23 08:02:00,25.0,22.0,29.32,ESE,122,0.0,-999.0,90,-99.99,,,-99.99,,2013-03-23 12:02:00,
2013-03-23 08:13:00,25.0,22.0,29.32,ESE,122,0.0,-999.0,90,-99.99,,,-99.99,,2013-03-23 12:13:00,
2013-03-23 08:22:00,26.0,23.0,29.28,East,89,2.0,-999.0,87,-99.99,,,-99.99,,2013-03-23 12:22:00,
2013-03-23 08:33:00,26.0,23.0,29.32,SE,145,2.0,-999.0,87,-99.99,,,-99.99,,2013-03-23 12:33:00,
2013-03-23 08:43:00,26.0,23.0,29.32,SE,145,2.0,-999.0,87,-99.99,,,-99.99,,2013-03-23 12:43:00,
2013-03-23 08:53:00,27.0,23.0,29.28,West,270,2.0,-999.0,84,-99.99,,,-99.99,,2013-03-23 12:53:00,
2013-03-23 09:03:00,27.0,23.0,29.32,South,186,1.0,-999.0,84,-99.99,,,-99.99,,2013-03-23 13:03:00,
2013-03-23 09:12:00,27.0,23.0,29.32,South,186,1.0,-999.0,84,-99.99,,,-99.99,,2013-03-23 13:12:00,
2013-03-23 09:23:00,29.0,24.0,29.28,SE,132,2.0,-999.0,80,-99.99,,,-99.99,,2013-03-23 13:23:00,
2013-03-23 09:33:00,29.0,23.0,29.32,SSE,151,2.0,-999.0,79,-99.99,,,-99.99,,2013-03-23 13:33:00,
2013-03-23 09:43:00,29.0,23.0,29.32,SSE,151,2.0,-999.0,79,-99.99,,,-99.99,,2013-03-23 13:43:00,
2013-03-23 09:53:00,30.0,24.0,29.28,SW,226,2.0,-999.0,77,-99.99,,,-99.99,,2013-03-23 13:53:00,
2013-03-23 10:03:00,31.0,24.0,29.31,West,262,1.0,-999.0,75,-99.99,,,-99.99,,2013-03-23 14:03:00,
2013-03-23 10:12:00,31.0,24.0,29.31,West,262,1.0,-999.0,75,-99.99,,,-99.99,,2013-03-23 14:12:00,
2013-03-23 10:23:00,31.0,24.0,29.28,SSW,203,3.0,-999.0,74,-99.99,,,-99.99,,2013-03-23 14:23:00,
2013-03-23 10:32:00,31.0,23.0,29.31,ESE,110,3.0,-999.0,73,-99.99,,,-99.99,,2013-03-23 14:32:00,
2013-03-23 10:43:00,31.0,23.0,29.31,ESE,110,3.0,-999.0,73,-99.99,,,-99.99,,2013-03-23 14:43:00,
2013-03-23 10:53:00,31.0,24.0,29.26,SE,124,3.0,-999.0,75,-99.99,,,-99.99,,2013-03-23 14:53:00,
2013-03-23 11:03:00,30.0,23.0,29.30,SE,145,5.0,-999.0,76,-99.99,,,-99.99,,2013-03-23 15:03:00,
2013-03-23 11:13:00,30.0,23.0,29.30,SE,145,5.0,-999.0,76,-99.99,,,-99.99,,2013-03-23 15:13:00,
2013-03-23 11:22:00,33.0,24.0,29.26,ESE,105,3.0,-999.0,70,-99.99,,,-99.99,,2013-03-23 15:22:00,
2013-03-23 11:33:00,32.0,23.0,29.29,SSE,151,4.0,-999.0,68,-99.99,,,-99.99,,2013-03-23 15:33:00,
2013-03-23 11:44:00,32.0,23.0,29.29,SSE,151,4.0,-999.0,68,-99.99,,,-99.99,,2013-03-23 15:44:00,
2013-03-23 11:53:00,33.0,21.0,29.26,WNW,285,4.0,-999.0,62,-99.99,,,-99.99,,2013-03-23 15:53:00,
2013-03-23 12:03:00,33.0,22.0,29.28,SSW,197,5.0,-999.0,63,-99.99,,,-99.99,,2013-03-23 16:03:00,
2013-03-23 12:13:00,33.0,22.0,29.28,SSW,197,5.0,-999.0,63,-99.99,,,-99.99,,2013-03-23 16:13:00,
2013-03-23 12:23:00,33.0,21.0,29.28,SE,141,4.0,-999.0,61,-99.99,,,-99.99,,2013-03-23 16:23:00,
2013-03-23 12:33:00,34.0,22.0,29.28,SSE,166,4.0,-999.0,60,-99.99,,,-99.99,,2013-03-23 16:33:00,
2013-03-23 12:43:00,34.0,22.0,29.28,SSE,166,4.0,-999.0,60,-99.99,,,-99.99,,2013-03-23 16:43:00,
2013-03-23 12:54:00,34.0,22.0,29.29,SSW,199,5.0,-999.0,61,-99.99,,,-99.99,,2013-03-23 16:54:00,
2013-03-23 13:03:00,34.0,22.0,29.29,SSW,199,5.0,-999.0,61,-99.99,,,-99.99,,2013-03-23 17:03:00,
2013-03-23 13:12:00,34.0,22.0,29.29,SSW,199,5.0,-999.0,61,-99.99,,,-99.99,,2013-03-23 17:12:00,
2013-03-23 13:23:00,35.0,23.0,29.26,West,268,5.0,-999.0,62,-99.99,,,-99.99,,2013-03-23 17:23:00,
2013-03-23 13:33:00,34.0,23.0,29.30,SSE,168,5.0,-999.0,65,-99.99,,,-99.99,,2013-03-23 17:33:00,
2013-03-23 13:43:00,34.0,23.0,29.30,SSE,168,5.0,-999.0,65,-99.99,,,-99.99,,2013-03-23 17:43:00,
2013-03-23 13:53:00,34.0,24.0,29.27,SSW,211,4.0,-999.0,67,-99.99,,,-99.99,,2013-03-23 17:53:00,
2013-03-23 14:03:00,33.0,23.0,29.30,South,186,3.0,-999.0,67,-99.99,,,-99.99,,2013-03-23 18:03:00,
2013-03-23 14:12:00,33.0,23.0,29.30,South,186,3.0,-999.0,67,-99.99,,,-99.99,,2013-03-23 18:12:00,
2013-03-23 14:23:00,34.0,24.0,29.27,East,93,5.0,-999.0,67,-99.99,,,-99.99,,2013-03-23 18:23:00,
2013-03-23 14:32:00,33.0,24.0,29.31,WSW,238,5.0,-999.0,68,-99.99,,,-99.99,,2013-03-23 18:32:00,
2013-03-23 14:43:00,33.0,24.0,29.31,WSW,238,5.0,-999.0,68,-99.99,,,-99.99,,2013-03-23 18:43:00,
2013-03-23 14:53:00,33.0,25.0,29.28,West,262,4.0,-999.0,71,-99.99,,,-99.99,,2013-03-23 18:53:00,
2013-03-23 15:03:00,33.0,24.0,29.32,SE,141,5.0,-999.0,70,-99.99,,,-99.99,,2013-03-23 19:03:00,
2013-03-23 15:13:00,33.0,24.0,29.32,SE,141,5.0,-999.0,70,-99.99,,,-99.99,,2013-03-23 19:13:00,
2013-03-23 15:23:00,33.0,24.0,29.30,SE,132,5.0,-999.0,70,-99.99,,,-99.99,,2013-03-23 19:23:00,
2013-03-23 15:32:00,33.0,25.0,29.34,East,96,3.0,-999.0,71,-99.99,,,-99.99,,2013-03-23 19:32:00,
2013-03-23 15:42:00,33.0,25.0,29.34,East,96,3.0,-999.0,71,-99.99,,,-99.99,,2013-03-23 19:42:00,
2013-03-23 15:53:00,33.0,25.0,29.30,SSE,157,2.0,-999.0,73,-99.99,,,-99.99,,2013-03-23 19:53:00,
2013-03-23 16:03:00,33.0,26.0,29.34,South,179,2.0,-999.0,74,-99.99,,,-99.99,,2013-03-23 20:03:00,
2013-03-23 16:13:00,33.0,26.0,29.34,South,179,2.0,-999.0,74,-99.99,,,-99.99,,2013-03-23 20:13:00,
2013-03-23 16:23:00,33.0,25.0,29.31,SE,137,3.0,-999.0,72,-99.99,,,-99.99,,2013-03-23 20:23:00,
2013-03-23 16:32:00,32.0,24.0,29.35,SE,132,4.0,-999.0,73,-99.99,,,-99.99,,2013-03-23 20:32:00,
2013-03-23 16:43:00,32.0,24.0,29.35,SE,132,4.0,-999.0,73,-99.99,,,-99.99,,2013-03-23 20:43:00,
2013-03-23 16:53:00,32.0,26.0,29.31,ESE,120,2.0,-999.0,77,-99.99,,,-99.99,,2013-03-23 20:53:00,
2013-03-23 17:02:00,32.0,26.0,29.35,SE,135,3.0,-999.0,77,-99.99,,,-99.99,,2013-03-23 21:02:00,
2013-03-23 17:12:00,32.0,26.0,29.35,SE,135,3.0,-999.0,77,-99.99,,,-99.99,,2013-03-23 21:12:00,
2013-03-23 17:22:00,33.0,26.0,29.32,SSW,202,3.0,-999.0,75,-99.99,,,-99.99,,2013-03-23 21:22:00,
2013-03-23 17:33:00,32.0,25.0,29.36,SW,233,3.0,-999.0,76,-99.99,,,-99.99,,2013-03-23 21:33:00,
2013-03-23 17:43:00,32.0,25.0,29.36,SW,233,3.0,-999.0,76,-99.99,,,-99.99,,2013-03-23 21:43:00,
2013-03-23 17:54:00,32.0,25.0,29.34,SSE,157,3.0,-999.0,76,-99.99,,,-99.99,,2013-03-23 21:54:00,
2013-03-23 18:03:00,32.0,26.0,29.38,South,175,1.0,-999.0,77,-99.99,,,-99.99,,2013-03-23 22:03:00,
2013-03-23 18:13:00,32.0,26.0,29.38,South,175,1.0,-999.0,77,-99.99,,,-99.99,,2013-03-23 22:13:00,
2013-03-23 18:23:00,32.0,26.0,29.34,ESE,122,2.0,-999.0,77,-99.99,,,-99.99,,2013-03-23 22:23:00,
2013-03-23 18:33:00,32.0,25.0,29.39,WSW,243,1.0,-999.0,76,-99.99,,,-99.99,,2013-03-23 22:33:00,
2013-03-23 18:42:00,32.0,25.0,29.39,WSW,243,1.0,-999.0,76,-99.99,,,-99.99,,2013-03-23 22:42:00,
2013-03-23 18:53:00,32.0,25.0,29.39,SSE,160,2.0,-999.0,76,-99.99,,,-99.99,,2013-03-23 22:53:00,
2013-03-23 19:02:00,32.0,25.0,29.39,SSE,160,2.0,-999.0,76,-99.99,,,-99.99,,2013-03-23 23:02:00,
2013-03-23 19:13:00,32.0,25.0,29.39,SSE,160,2.0,-999.0,76,-99.99,,,-99.99,,2013-03-23 23:13:00,
2013-03-23 19:23:00,32.0,26.0,29.36,SE,143,2.0,-999.0,77,-99.99,,,-99.99,,2013-03-23 23:23:00,
2013-03-23 19:33:00,31.0,25.0,29.40,SW,221,3.0,-999.0,78,-99.99,,,-99.99,,2013-03-23 23:33:00,
2013-03-23 19:43:00,31.0,25.0,29.40,SW,221,3.0,-999.0,78,-99.99,,,-99.99,,2013-03-23 23:43:00,
2013-03-23 19:53:00,31.0,25.0,29.38,SW,226,3.0,-999.0,79,-99.99,,,-99.99,,2013-03-23 23:53:00,
2013-03-23 20:02:00,31.0,25.0,29.41,SSW,200,3.0,-999.0,79,-99.99,,,-99.99,,2013-03-24 00:02:00,
2013-03-23 20:13:00,31.0,25.0,29.41,SSW,200,3.0,-999.0,79,-99.99,,,-99.99,,2013-03-24 00:13:00,
2013-03-23 20:23:00,32.0,26.0,29.38,South,183,3.0,-999.0,79,-99.99,,,-99.99,,2013-03-24 00:23:00,
2013-03-23 20:33:00,31.0,25.0,29.42,SSW,201,2.0,-999.0,79,-99.99,,,-99.99,,2013-03-24 00:33:00,
2013-03-23 20:42:00,31.0,25.0,29.42,SSW,201,2.0,-999.0,79,-99.99,,,-99.99,,2013-03-24 00:42:00,
2013-03-23 20:53:00,31.0,25.0,29.40,SSE,155,3.0,-999.0,79,-99.99,,,-99.99,,2013-03-24 00:53:00,
2013-03-23 21:02:00,31.0,25.0,29.44,South,176,5.0,-999.0,78,-99.99,,,-99.99,,2013-03-24 01:02:00,
2013-03-23 21:12:00,31.0,25.0,29.44,South,176,5.0,-999.0,78,-99.99,,,-99.99,,2013-03-24 01:12:00,
2013-03-23 21:22:00,31.0,25.0,29.44,SSE,147,2.0,-999.0,79,-99.99,,,-99.99,,2013-03-24 01:22:00,
2013-03-23 21:33:00,31.0,25.0,29.44,SSE,147,2.0,-999.0,79,-99.99,,,-99.99,,2013-03-24 01:33:00,
2013-03-23 21:43:00,31.0,25.0,29.44,SSE,147,2.0,-999.0,79,-99.99,,,-99.99,,2013-03-24 01:43:00,
2013-03-23 21:53:00,31.0,25.0,29.41,SSW,200,1.0,-999.0,77,-99.99,,,-99.99,,2013-03-24 01:53:00,
2013-03-23 22:03:00,31.0,25.0,29.44,SE,137,3.0,-999.0,77,-99.99,,,-99.99,,2013-03-24 02:03:00,
2013-03-23 22:12:00,31.0,25.0,29.44,SE,137,3.0,-999.0,77,-99.99,,,-99.99,,2013-03-24 02:12:00,
2013-03-23 22:22:00,32.0,25.0,29.41,SSE,160,1.0,-999.0,76,-99.99,,,-99.99,,2013-03-24 02:22:00,
2013-03-23 22:32:00,31.0,24.0,29.44,East,92,0.0,-999.0,75,-99.99,,,-99.99,,2013-03-24 02:32:00,
2013-03-23 22:43:00,31.0,24.0,29.44,East,92,0.0,-999.0,75,-99.99,,,-99.99,,2013-03-24 02:43:00,
2013-03-23 22:52:00,32.0,25.0,29.41,SW,217,2.0,-999.0,75,-99.99,,,-99.99,,2013-03-24 02:52:00,
2013-03-23 23:02:00,31.0,24.0,29.44,WNW,299,2.0,-999.0,75,-99.99,,,-99.99,,2013-03-24 03:02:00,
2013-03-23 23:13:00,31.0,24.0,29.44,WNW,299,2.0,-999.0,75,-99.99,,,-99.99,,2013-03-24 03:13:00,
2013-03-23 23:23:00,32.0,25.0,29.40,SSW,201,2.0,-999.0,76,-99.99,,,-99.99,,2013-03-24 03:23:00,
2013-03-23 23:33:00,31.0,24.0,29.43,SSE,155,1.0,-999.0,76,-99.99,,,-99.99,,2013-03-24 03:33:00,
2013-03-23 23:42:00,31.0,24.0,29.43,SSE,155,1.0,-999.0,76,-99.99,,,-99.99,,2013-03-24 03:42:00,
2013-03-23 23:53:00,31.0,24.0,29.40,South,182,1.0,-999.0,76,-99.99,,,-99.99,,2013-03-24 03:53:00,